Location: Roland
(31.1349°N, 85.4372°W)
Time: 05:04:29
(UTC+00:00)

Vanguard 2 Rocket - Pass Details

Date: 09 December 2021
Orbit: 554 x 3324 km, 32.9° (Epoch: 16 January)

Event Time Altitude Azimuth Distance (km) Brightness Sun altitude
Rises 23:25:47 0° 271° (W) 2,919 10.9 -9.9°
Reaches altitude 10° 23:27:44 10° 274° (W) 2,149 10.0 -10.3°
Maximum altitude 23:32:34 75° 359° (N) 945 6.9 -11.2°
Enters shadow 23:39:23 14° 85° (E) 3,028 8.9 -12.6°
